Regional Weather Roundup
Issued by NWS Huntsville, AL

Home | Current Version | Previous Version | Text Only | Print | Product List | Glossary On
Versions: 1 2 3 4 5 6 7 8 9 10 11 12 13 14 15 16 17 18 19 20 21 22 23 24 25 26 27 28 29 30 31 32 33 34 35 36 37 38 39 40 41 42 43 44 45 46 47 48 49 50
000
ASUS44 KHUN 251610
RWRHUN

WEATHER ROUNDUP FOR THE TENNESSEE VALLEY
NATIONAL WEATHER SERVICE HUNTSVILLE AL
1100 AM CDT MON MAY 25 2015

ALZ001>004-251700-
NORTHWEST ALABAMA

CITY           SKY/WX    TMP DP  RH WIND       PRES   REMARKS
SHOALS AIRPORT LGT RAIN  68  63  84 S12       30.19R
$$

ALZ005>007-016-251700-
NORTH CENTRAL ALABAMA

CITY           SKY/WX    TMP DP  RH WIND       PRES   REMARKS
DECATUR AP     CLOUDY    72  68  87 SE7       30.18R
HUNTSVILLE AP  LGT RAIN  75  67  76 S15G21    30.18R
HUN NWS/UAH      N/A     74  65  72 SE8         N/A
MERIDIANVILLE  CLOUDY    72  61  68 SE12      30.20R
REDSTONE ARSN  LGT RAIN  73  67  81 SE12      30.17F
VINEMONT AP    PTSUNNY   72  66  81 SE9       30.21R
$$

ALZ008>010-251700-
NORTHEAST ALABAMA

CITY           SKY/WX    TMP DP  RH WIND       PRES   REMARKS
ALBERTVILLE    CLOUDY    73  70  88 SE13      30.20F
FORT PAYNE     CLOUDY    72  61  68 S5        30.24S
SCOTTSBORO HCN   N/A     73 N/A N/A MISG        N/A
VALLEY HEAD      N/A     73 N/A N/A MISG        N/A
$$

TNZ076-096-097-251700-
SOUTHEASTERN MIDDLE TENNESSEE

CITY           SKY/WX    TMP DP  RH WIND       PRES   REMARKS
TULLAHOMA      CLOUDY    72  63  73 SE7       30.22S
WINCHESTER     PTSUNNY   73  64  73 S17       30.21S
$$

...SURROUNDING SITES...

CITY           SKY/WX    TMP DP  RH WIND       PRES   REMARKS
ATLANTA        PTSUNNY   78  65  63 SE12      30.28S
ANNISTON       PTSUNNY   79  67  66 SE13G18   30.22S
BIRMINGHAM     CLOUDY    75  68  78 SE6       30.21S
CHATTANOOGA    CLOUDY    76  62  62 S9G23     30.25S
CORINTH        DRIZZLE   68  66  94 SE7       30.14R
DALTON         PTSUNNY   77  63  61 SE13      30.26S
GADSDEN        CLOUDY   N/A N/A N/A SE9       30.20S
GOLDEN TRNGL   NOT AVBL
HALEYVILLE     CLOUDY    71  69  93 S10G17    30.20R
JACKSON TN     CLOUDY    70  67  90 VRB5      30.11S
LEWISBURG      CLOUDY    68  65  90 E3        30.18
MEMPHIS        CLOUDY    75  68  78 S7        30.09R
NASHVILLE      LGT RAIN  68  66  93 S6        30.19S
OXFORD MS      CLOUDY    72  68  88 SE5       30.13R
ROME           CLOUDY    77  65  66 SE10      30.24F
SAVANNAH       PTSUNNY   66  32  28 CALM      30.15R
TUPELO         CLOUDY    70  66  87 CALM      30.12S
TUSCALOOSA     LGT RAIN  75  70  84 S8        30.16S
$$

...GULF COAST WEATHER...

CITY           SKY/WX    TMP DP  RH WIND       PRES   REMARKS
GULFPORT       LGT RAIN  72  67  84 S13       30.10R
PASCAGOULA     LGT RAIN  77  74  90 S9        30.12R
MOBILE         CLOUDY    78  75  90 SE10      30.13S THUNDER FOG
GULF SHORES    CLOUDY    80  72  76 SE13G18   30.14R
PENSACOLA      CLOUDY    82  74  76 SE15      30.14S
DESTIN         CLOUDY    83  76  79 SE12G20   30.16S HX  91
PANAMA CITY    MOSUNNY   87  75  68 S17       30.17S HX  96
APPALACHICOLA  PTSUNNY   86  74  67 SE12      30.19S HX  94
$$



USA.gov is the U.S. government's official web portal to all federal, state and local government web resources and services.